Wind_Speed
25 24 24 23 22 22 22 22 23 22 22 21 23 23 23 23 23 23 24 23 23 23 23 23 23 24 23 23 24 24 25 25 26 27 27 27 28 28 29 29 30 31 32 33
27 26 25 25 24 25 25 25 25 25 24 23 24 25 25 25 25 24 23 24 25 25 24 24 24 24 24 24 24 24 24 25 25 26 26 27 27 27 27 28 29 29 30 31
29 28 28 27 26 26 26 26 27 27 26 26 26 27 27 27 26 26 25 25 26 26 26 25 26 25 25 25 24 25 25 25 26 26 26 26 27 27 27 27 28 28 29 30
32 32 32 29 28 28 28 28 29 29 29 30 29 28 28 28 27 27 27 28 27 27 27 27 27 27 27 27 27 27 26 26 26 26 26 25 25 26 26 26 27 28 29 29
34 34 34 31 30 30 31 30 30 31 31 32 31 31 30 29 29 28 28 28 29 29 29 29 29 28 28 28 28 28 27 27 27 27 27 26 26 26 26 26 26 27 28 29
36 36 35 33 33 33 34 33 31 32 33 33 32 32 31 30 30 30 30 30 30 30 30 30 30 29 28 28 28 28 27 27 27 26 26 27 26 26 27 27 27 27 28 28
38 38 37 35 35 35 35 35 35 35 34 34 34 34 33 32 32 31 31 31 31 31 31 31 31 31 30 29 29 30 29 28 28 27 27 27 27 27 27 28 28 28 29 29
40 40 39 37 38 38 39 39 39 38 38 37 37 36 35 35 34 33 32 32 32 32 32 32 32 32 31 31 31 31 30 30 29 28 28 29 29 28 28 29 29 29 29 30
43 42 41 41 41 42 42 42 41 40 40 40 40 39 38 37 36 35 34 33 34 34 33 33 34 33 32 31 31 31 31 30 30 29 29 29 30 29 29 30 31 31 30 30
45 44 43 44 45 45 45 44 43 42 41 41 41 41 40 39 38 37 36 35 36 36 35 34 34 34 34 33 32 32 31 31 31 30 30 30 31 31 32 32 32 32 32 32
46 45 46 46 47 47 47 47 45 44 43 43 42 41 41 41 40 39 38 37 37 38 37 36 36 36 36 35 34 33 33 33 33 33 33 32 32 32 33 33 33 33 33 33
47 46 49 48 47 48 48 46 46 46 45 44 44 43 42 42 41 40 40 39 39 39 39 38 37 37 37 37 36 35 34 35 35 34 34 34 33 33 34 35 35 34 34 34
49 49 50 49 47 48 48 47 46 47 46 46 45 45 44 43 42 42 41 41 41 40 40 39 38 38 38 38 38 37 36 35 36 35 35 35 35 35 35 35 35 35 35 35
49 50 50 49 48 48 48 48 48 47 47 47 47 46 45 44 43 43 42 41 41 41 40 39 39 39 38 38 38 37 37 36 36 36 35 35 35 35 35 36 36 35 35 35
50 50 50 49 48 48 48 48 48 47 47 46 46 45 45 45 44 43 42 42 41 40 40 39 38 39 38 38 38 38 38 37 37 36 36 36 35 35 34 35 35 35 36 35
48 49 49 48 48 48 48 48 47 46 46 45 45 44 44 44 44 43 42 41 41 40 39 39 39 39 40 39 38 38 37 37 37 36 36 35 35 34 34 34 34 34 35 35
47 47 47 47 47 47 47 47 46 46 45 45 44 43 42 42 42 42 41 41 41 41 40 39 39 40 40 39 38 37 37 37 37 37 36 36 35 35 34 34 34 35 35 35
46 46 45 45 45 45 45 45 45 44 44 42 41 41 40 40 40 40 40 40 40 39 39 39 39 39 39 38 37 37 37 37 37 37 37 37 36 36 35 35 35 35 35 36
45 45 45 45 45 45 44 44 43 43 42 42 41 40 39 39 39 38 38 38 38 37 37 37 37 38 38 38 37 37 37 37 37 37 37 37 37 36 35 35 35 35 35 35
44 44 44 44 44 44 43 43 42 42 41 41 40 39 39 38 37 37 37 36 36 36 37 36 37 37 36 36 36 36 36 36 36 37 37 37 37 36 35 35 35 35 35 35
44 44 44 43 43 42 41 41 41 41 40 40 39 38 38 37 36 36 35 34 34 35 35 35 35 35 35 35 35 35 35 35 35 35 35 36 36 36 35 35 34 34 33 34
43 43 42 42 41 41 40 40 39 39 39 38 37 36 35 35 35 35 34 33 33 33 33 33 34 34 34 33 33 34 34 34 34 35 35 35 35 35 35 35 34 34 34 33
41 41 40 39 39 38 38 38 38 38 37 36 36 35 34 33 33 33 33 32 32 32 32 31 31 32 32 32 32 32 33 33 33 33 33 33 33 33 33 33 34 33 33 33
40 40 39 39 39 39 38 37 37 36 35 35 35 34 34 33 32 31 30 30 30 30 30 30 30 30 30 30 30 30 31 31 32 32 32 32 31 31 31 32 32 32 32 32
40 40 39 39 38 37 36 36 35 35 34 33 32 32 32 31 30 30 29 29 29 28 29 29 29 29 28 28 28 28 28 29 30 30 30 30 30 30 30 30 31 31 31 31
38 39 38 37 36 35 34 34 34 33 32 32 30 30 30 30 30 29 28 27 27 27 27 27 27 27 26 26 26 27 27 27 28 29 29 29 29 30 30 30 30 30 30 29
36 36 35 34 33 33 32 32 31 30 30 30 29 29 28 28 28 27 26 26 26 25 25 25 25 25 25 25 25 25 26 27 27 28 28 29 29 29 29 29 29 28 28 27
Wind_Direction
295 295 293 292 291 290 290 291 289 287 282 279 281 282 282 282 282 279 275 273 272 272 270 269 270 269 269 268 266 266 266 266 266 267 267 267 266 265 264 262 261 260 260 260
292 291 290 289 290 289 289 289 288 286 283 281 278 277 279 281 281 280 276 273 273 274 273 271 270 270 268 268 267 267 267 267 268 269 268 267 266 265 265 264 263 262 261 260
289 289 288 289 290 288 288 287 285 285 284 282 279 277 277 278 278 278 276 274 274 275 275 272 271 270 269 268 267 267 269 269 270 270 268 267 265 265 264 263 262 260 259 260
287 286 286 289 289 287 286 285 285 284 282 282 280 279 278 278 278 276 274 274 274 275 275 273 271 270 269 267 266 266 268 270 270 269 268 267 266 266 265 263 261 260 261 260
285 285 285 286 287 286 285 286 285 282 281 281 280 279 279 278 277 277 274 273 274 274 274 274 272 270 269 267 266 266 266 269 270 269 267 266 266 266 264 262 261 261 262 262
284 284 284 285 285 284 283 284 283 281 281 280 279 278 278 278 276 277 276 274 273 273 273 273 272 271 270 268 266 265 266 268 269 268 266 266 266 265 264 263 263 263 264 264
281 281 282 284 284 283 283 283 281 280 280 278 278 279 279 278 277 277 276 274 273 272 272 272 272 270 269 267 266 265 266 268 269 268 267 266 265 264 264 264 264 265 265 265
279 279 282 281 281 280 279 279 280 279 279 279 279 280 281 281 279 278 277 274 273 272 271 271 271 270 268 266 265 264 265 266 267 267 266 266 265 265 265 264 264 265 265 266
278 279 279 279 278 278 278 277 278 279 279 279 279 280 280 281 280 279 277 275 273 271 271 271 270 269 267 265 264 264 264 265 265 264 264 265 265 264 264 265 265 265 266 267
279 279 278 276 276 276 276 277 277 278 278 278 279 279 279 279 279 279 277 274 272 271 270 270 269 268 266 264 263 264 264 264 265 265 265 265 265 264 265 265 266 265 266 267
280 279 276 275 275 274 274 276 277 278 278 278 279 279 279 279 278 277 276 274 271 270 269 268 267 267 265 263 262 263 263 262 263 264 265 265 265 265 265 265 265 265 265 266
279 277 275 275 274 273 274 276 277 277 276 277 278 279 278 278 277 275 274 273 271 270 269 267 265 264 263 263 262 262 263 262 262 263 264 264 265 265 266 265 264 265 265 266
277 276 276 276 275 274 274 274 275 276 276 276 276 277 277 276 275 274 273 272 270 268 267 266 263 262 262 263 261 260 261 261 261 262 262 263 264 265 265 264 264 264 265 265
276 275 275 275 274 274 273 273 274 276 276 276 276 276 276 276 274 273 272 271 270 268 267 264 262 261 261 262 261 259 260 261 261 261 262 263 264 264 264 263 263 264 264 264
276 275 275 275 275 274 274 274 274 275 276 276 275 275 275 275 274 273 272 270 269 267 265 262 260 259 259 260 260 260 260 260 260 261 261 262 264 264 264 263 263 263 263 264
275 275 275 275 274 274 273 274 274 276 277 277 276 276 275 275 274 274 271 269 267 265 262 261 259 259 259 259 260 260 259 259 259 259 260 261 263 264 264 264 263 263 263 264
274 274 273 273 273 273 273 273 275 276 277 278 278 277 276 275 274 273 271 268 266 263 260 259 259 259 259 259 260 260 259 258 257 258 258 259 261 262 264 264 263 263 263 264
275 274 273 274 274 274 274 274 275 275 277 278 277 276 276 275 274 272 269 266 264 262 259 258 258 258 259 259 259 258 257 257 257 257 257 258 259 260 261 261 262 263 263 264
274 274 274 274 275 275 275 275 275 275 275 276 275 274 274 274 272 271 269 265 263 260 258 257 257 258 259 258 258 258 257 256 256 256 257 257 258 259 260 260 261 262 262 263
273 273 273 274 275 276 276 275 274 274 274 274 273 272 272 272 270 269 268 266 262 260 257 256 256 258 258 258 257 257 256 256 256 257 257 256 256 256 257 259 260 261 262 264
273 274 275 275 276 276 276 275 273 273 273 272 271 270 270 269 269 269 268 266 262 258 257 256 257 258 258 257 255 255 255 255 256 256 256 256 255 256 257 259 260 261 263 264
274 275 275 276 276 275 274 273 273 272 271 270 268 268 268 269 268 267 267 265 262 258 256 256 256 256 256 256 255 254 254 254 255 255 255 255 255 256 257 259 260 261 262 264
273 274 274 274 274 273 272 272 271 270 269 268 267 267 267 268 268 266 264 262 261 259 256 255 255 255 255 255 254 254 254 253 254 254 253 254 255 256 257 258 260 262 263 265
273 275 274 273 273 272 272 271 271 269 268 268 267 268 266 266 266 265 262 260 258 257 255 255 254 253 253 254 253 254 253 252 252 251 252 253 254 255 257 259 261 263 264 265
273 273 274 273 273 273 273 272 270 267 266 266 266 266 265 264 264 262 261 260 258 257 255 254 252 251 251 251 252 253 252 251 251 251 251 252 253 254 257 260 262 263 265 266
273 274 273 273 274 274 274 273 271 268 265 264 264 265 264 262 261 260 259 258 256 254 253 253 251 249 247 249 250 251 251 251 251 251 251 253 255 257 258 260 262 262 264 265
273 274 274 273 272 272 272 272 270 267 265 264 265 265 263 261 259 257 255 254 253 251 251 250 248 247 247 248 249 250 250 251 251 252 253 254 256 258 259 259 260 261 262 263
Height
5678 5676 5674 5672 5671 5668 5666 5664 5661 5661 5659 5658 5654 5652 5650 5649 5647 5645 5644 5643 5642 5641 5640 5640 5639 5638 5637 5637 5637 5637 5637 5636 5636 5636 5636 5635 5635 5635 5635 5635 5635 5636 5637 5639
5671 5669 5666 5665 5664 5661 5659 5656 5654 5652 5651 5649 5647 5645 5643 5642 5640 5638 5637 5636 5635 5634 5633 5632 5631 5631 5630 5630 5629 5629 5629 5629 5629 5628 5628 5627 5627 5627 5627 5627 5627 5628 5629 5630
5662 5660 5658 5658 5657 5653 5651 5648 5646 5643 5643 5640 5638 5636 5635 5634 5632 5631 5630 5628 5627 5626 5626 5625 5624 5623 5623 5622 5622 5622 5622 5622 5621 5621 5620 5620 5619 5619 5619 5619 5620 5620 5621 5622
5652 5651 5649 5651 5647 5644 5642 5640 5637 5635 5633 5631 5629 5628 5626 5625 5624 5623 5621 5620 5619 5618 5617 5616 5616 5615 5615 5615 5614 5614 5614 5614 5613 5613 5612 5612 5612 5611 5611 5611 5612 5612 5613 5615
5642 5640 5639 5641 5638 5634 5632 5631 5628 5625 5623 5622 5620 5619 5618 5616 5615 5614 5613 5612 5610 5610 5609 5608 5607 5607 5607 5607 5606 5606 5606 5606 5605 5604 5604 5604 5604 5604 5603 5604 5604 5605 5606 5606
5632 5629 5628 5631 5627 5623 5622 5620 5618 5615 5613 5612 5610 5609 5609 5607 5606 5604 5603 5602 5601 5601 5600 5599 5598 5598 5598 5598 5598 5598 5597 5597 5597 5596 5596 5596 5596 5596 5596 5596 5596 5597 5597 5598
5620 5617 5617 5619 5615 5612 5611 5610 5606 5604 5602 5601 5599 5599 5599 5597 5596 5595 5594 5592 5591 5591 5591 5590 5589 5589 5589 5589 5588 5588 5588 5589 5589 5588 5588 5588 5588 5588 5588 5588 5588 5589 5589 5590
5608 5606 5609 5606 5603 5601 5599 5596 5594 5592 5591 5590 5589 5588 5587 5587 5586 5585 5584 5583 5582 5581 5581 5580 5579 5579 5579 5579 5579 5579 5579 5580 5580 5580 5580 5580 5580 5580 5580 5580 5580 5580 5580 5581
5597 5597 5595 5592 5589 5587 5584 5583 5582 5581 5580 5578 5577 5576 5576 5575 5575 5574 5573 5572 5571 5570 5570 5570 5569 5568 5569 5569 5569 5570 5570 5570 5570 5570 5571 5571 5571 5571 5571 5571 5571 5571 5572 5572
5582 5583 5581 5578 5575 5573 5571 5569 5569 5568 5567 5566 5565 5564 5563 5562 5562 5561 5561 5560 5559 5559 5559 5559 5558 5558 5558 5558 5559 5560 5560 5561 5561 5561 5561 5561 5561 5561 5562 5562 5562 5562 5562 5562
5567 5568 5565 5564 5561 5559 5557 5556 5555 5554 5553 5552 5551 5551 5550 5549 5549 5549 5548 5547 5547 5546 5546 5547 5546 5546 5546 5547 5548 5549 5550 5550 5550 5551 5551 5551 5551 5551 5551 5552 5552 5552 5552 5552
5551 5551 5547 5548 5547 5544 5543 5542 5541 5540 5540 5539 5537 5537 5536 5536 5535 5535 5534 5534 5534 5533 5533 5533 5533 5534 5535 5535 5536 5538 5538 5539 5540 5540 5540 5540 5540 5541 5540 5541 5541 5541 5542 5542
5535 5533 5531 5531 5531 5529 5528 5528 5527 5526 5525 5525 5524 5522 5521 5521 5521 5520 5520 5520 5520 5520 5520 5520 5520 5521 5522 5523 5524 5526 5527 5527 5528 5529 5529 5529 5529 5530 5530 5530 5530 5531 5531 5531
5519 5516 5515 5516 5515 5515 5513 5512 5511 5511 5510 5509 5509 5508 5507 5506 5506 5506 5505 5505 5505 5505 5506 5506 5507 5508 5509 5510 5512 5513 5514 5515 5516 5517 5517 5518 5518 5518 5518 5519 5519 5519 5520 5520
5503 5500 5499 5499 5500 5499 5498 5497 5497 5496 5495 5495 5494 5493 5493 5492 5491 5491 5490 5490 5490 5491 5492 5492 5494 5495 5496 5497 5499 5500 5501 5502 5503 5504 5505 5505 5506 5506 5506 5507 5507 5508 5508 5509
5487 5485 5484 5484 5484 5483 5483 5482 5482 5481 5481 5480 5480 5479 5478 5477 5477 5476 5476 5476 5476 5477 5478 5479 5480 5481 5482 5484 5485 5487 5488 5489 5490 5492 5492 5493 5494 5494 5495 5495 5496 5496 5497 5497
5471 5470 5470 5469 5469 5468 5468 5467 5467 5466 5466 5465 5465 5464 5463 5463 5462 5461 5461 5461 5461 5463 5464 5465 5466 5468 5469 5470 5472 5474 5475 5476 5477 5479 5480 5481 5482 5483 5483 5483 5484 5485 5485 5486
5456 5455 5455 5454 5453 5453 5453 5453 5452 5452 5451 5450 5450 5449 5449 5448 5447 5447 5446 5446 5447 5449 5450 5451 5453 5454 5456 5457 5458 5460 5461 5463 5464 5466 5467 5468 5469 5470 5471 5472 5473 5473 5474 5474
5441 5440 5440 5439 5438 5438 5438 5438 5438 5437 5437 5436 5435 5435 5435 5434 5433 5432 5432 5433 5434 5435 5437 5438 5439 5441 5442 5444 5445 5447 5448 5450 5451 5452 5454 5455 5457 5458 5459 5460 5461 5461 5462 5462
5426 5426 5425 5424 5424 5423 5423 5423 5423 5423 5422 5422 5421 5421 5421 5420 5419 5419 5419 5420 5421 5422 5423 5425 5426 5428 5429 5431 5432 5434 5435 5437 5438 5440 5441 5443 5444 5446 5447 5448 5449 5450 5451 5451
5412 5411 5411 5410 5410 5410 5409 5408 5408 5408 5408 5407 5407 5407 5407 5407 5407 5406 5406 5408 5409 5409 5410 5412 5414 5415 5417 5418 5420 5422 5423 5425 5426 5428 5429 5431 5432 5434 5435 5437 5438 5439 5439 5440
5398 5397 5397 5396 5396 5395 5395 5394 5394 5394 5394 5394 5394 5393 5394 5394 5394 5394 5395 5395 5396 5397 5398 5400 5402 5404 5405 5407 5409 5410 5412 5413 5415 5416 5418 5419 5421 5422 5424 5425 5426 5427 5428 5428
5384 5384 5383 5382 5382 5381 5382 5381 5381 5380 5380 5381 5381 5381 5381 5381 5382 5382 5383 5384 5385 5386 5387 5389 5391 5392 5394 5396 5397 5399 5401 5402 5404 5405 5407 5408 5410 5411 5413 5414 5415 5416 5417 5418
5371 5370 5369 5369 5368 5368 5368 5368 5368 5368 5368 5368 5369 5369 5369 5369 5370 5371 5371 5372 5374 5375 5376 5378 5380 5382 5383 5385 5387 5388 5390 5391 5393 5394 5396 5398 5399 5401 5402 5404 5405 5406 5406 5407
5357 5357 5356 5355 5355 5355 5355 5355 5355 5355 5355 5356 5357 5357 5357 5358 5359 5360 5361 5362 5363 5364 5366 5368 5370 5372 5373 5375 5376 5378 5380 5381 5383 5385 5386 5388 5389 5391 5392 5394 5394 5395 5396 5396
5344 5344 5343 5343 5343 5343 5343 5342 5342 5343 5344 5344 5346 5346 5346 5347 5348 5349 5350 5352 5353 5355 5356 5358 5360 5362 5364 5365 5367 5369 5370 5372 5374 5375 5377 5378 5380 5381 5382 5383 5384 5385 5385 5386
5332 5332 5331 5331 5332 5331 5331 5330 5331 5332 5332 5333 5334 5335 5336 5336 5337 5339 5340 5342 5344 5346 5347 5349 5351 5353 5355 5356 5358 5359 5361 5363 5364 5366 5367 5369 5370 5372 5373 5373 5374 5375 5376 5376